Terug naar catalogus

COSMOS 1275 DEB

ActiefPO
NORAD 17633·DEBRIS·🇷🇺 Russia

Gelanceerd Jun 4, 1981 vanaf Plesetsk Cosmodrome

Loading…

Volgende Passages (komende 24 uur)

TLE

VersSource: Space-Track

Epoch: Sep 13, 2026, 22:26 UTC

1 17633U 81053LC  26256.93506372  .00002639  00000-0  19424-2 0  9995
2 17633  83.0614  67.8812 0156145 133.9616 352.8280 13.89605904 53659

Volg COSMOS 1275 DEB in realtime met AllMySat

Download on the App Store